Location: Newark
(35.5000°N, 109.0000°E)
Time: 10:07:50
(UTC+00:00)

ISS - Visible Passes

Search period start: 20 September 2020 00:00
Search period end: 30 September 2020 00:00
Orbit: 419 x 420 km, 51.6° (Epoch: 20 September)

Date Brightness Start Highest point End Pass type
(mag) Time Alt. Az. Time Alt. Az. Time Alt. Az.
20 Sep -1.3 11:52:35 10° W 11:55:15 21° NNW 11:57:55 10° NNE visible
21 Sep -2.1 11:04:39 10° WSW 11:07:44 33° NW 11:10:49 10° NNE visible
22 Sep -0.7 11:56:55 10° NW 11:57:41 11° NNW 11:58:28 10° N visible
23 Sep -1.0 11:08:02 10° WNW 11:10:02 15° NNW 11:12:01 10° N visible
